Weather History for Flag Island, MN

Change the Weather History Date:

Monday, January 21, 2013

  Actual Average Record
Temperature  
Mean Temperature -18 °F -  
Max Temperature -11 °F 7 °F 24 °F (1997)
Min Temperature -25 °F -3 °F -34 °F (2011)
Degree Days  
Heating Degree Days 83    
Moisture  
Dew Point -25 °F    
Average Humidity 71    
Maximum Humidity 77    
Minimum Humidity 64    
Precipitation  
Precipitation 0.00 in - - ()
Sea Level Pressure  
Sea Level Pressure 30.16 in    
Wind  
Wind Speed 11 mph (WNW)    
Max Wind Speed 18 mph    
Max Gust Speed 22 mph    
Visibility 9 miles    
Events      
Averages and records for this station are not official NWS values.
T = Trace of Precipitation, MM = Missing Value Source: NWS Daily Summary

Daily Weather History Graph

Daily Weather History Graph

Search for Another Location

Airport:

Trip Planner

Search our weather history database for the weather conditions in past years. The results will help you decide how hot, cold, wet, or windy it might be!

Date:

Astronomy

Jan. 21, 2013 Rise Set
Actual Time 8:03 AM CST 4:58 PM CST
Civil Twilight 7:28 AM CST 5:34 PM CST
Nautical Twilight 6:49 AM CST 6:13 PM CST
Astronomical Twilight 6:11 AM CST 6:51 PM CST
Moon 12:37 PM CST (1/21) 3:34 AM CST (1/21)
Length of Visible Light 10h 05m
Length of Day
8h 54m
Waxing Gibbous, 75% of the Moon is Illuminated
Jan 21
Waxing Gibbous
Jan 26
Full
Feb 3
Last Quarter
Feb 10
New
Feb 17
First Quarter

Hourly Weather History & Observations

Time (CST) Temp. Windchill Dew Point Humidity Pressure Visibility Wind Dir Wind Speed Gust Speed Precip Events Conditions
12:14 AM -20.2 °F -44.4 °F -27.4 °F 69% 30.19 in 10.0 mi WNW 13.8 mph - N/A   Clear
12:34 AM -20.2 °F -44.4 °F -27.4 °F 69% 30.18 in 10.0 mi WNW 13.8 mph - N/A   Clear
12:53 AM -20.2 °F -44.4 °F -27.4 °F 69% 30.18 in 10.0 mi WNW 13.8 mph - N/A   Clear
1:14 AM -20.2 °F -42.4 °F -27.4 °F 69% 30.18 in 10.0 mi WNW 11.5 mph - N/A   Clear
1:34 AM -20.2 °F -42.4 °F -27.4 °F 69% 30.18 in 10.0 mi WNW 11.5 mph - N/A   Clear
1:53 AM -22.0 °F -42.3 °F -27.4 °F 76% 30.18 in 10.0 mi WNW 9.2 mph - N/A   Clear
2:14 AM -22.0 °F -43.6 °F -29.2 °F 69% 30.18 in 10.0 mi WNW 10.4 mph - N/A   Clear
2:34 AM -22.0 °F -42.3 °F -29.2 °F 69% 30.18 in 10.0 mi WNW 9.2 mph - N/A   Clear
2:53 AM -22.0 °F -41.0 °F -27.4 °F 76% 30.19 in 10.0 mi West 8.1 mph - N/A   Scattered Clouds
3:14 AM -22.0 °F -39.4 °F -29.2 °F 69% 30.18 in 10.0 mi West 6.9 mph - N/A   Clear
3:34 AM -22.0 °F -41.0 °F -27.4 °F 76% 30.18 in 10.0 mi West 8.1 mph - N/A   Scattered Clouds
3:53 AM -22.0 °F -41.0 °F -27.4 °F 76% 30.18 in 10.0 mi West 8.1 mph - N/A   Scattered Clouds
4:14 AM -22.0 °F -43.6 °F -27.4 °F 76% 30.17 in 10.0 mi West 10.4 mph - N/A   Scattered Clouds
4:33 AM -22.0 °F -44.7 °F -27.4 °F 76% 30.16 in 10.0 mi WNW 11.5 mph - N/A   Scattered Clouds
4:53 AM -22.0 °F -43.6 °F -27.4 °F 76% 30.16 in 10.0 mi WNW 10.4 mph - N/A   Scattered Clouds
5:14 AM -22.0 °F -43.6 °F -27.4 °F 76% 30.16 in 10.0 mi WNW 10.4 mph - N/A   Clear
5:53 AM -22.0 °F -44.7 °F -27.4 °F 76% 30.16 in 10.0 mi West 11.5 mph - N/A   Clear
6:14 AM -22.0 °F -42.3 °F -27.4 °F 76% 30.16 in 10.0 mi West 9.2 mph - N/A   Scattered Clouds
6:33 AM -22.0 °F -39.4 °F -27.4 °F 76% 30.16 in 10.0 mi West 6.9 mph - N/A   Mostly Cloudy
6:53 AM -23.8 °F -39.8 °F -29.2 °F 76% 30.16 in 10.0 mi West 5.8 mph - N/A   Scattered Clouds
7:14 AM -23.8 °F -37.7 °F -29.2 °F 76% 30.15 in 10.0 mi WSW 4.6 mph - N/A   Scattered Clouds
7:33 AM -23.8 °F -37.7 °F -29.2 °F 76% 30.15 in 10.0 mi West 4.6 mph - N/A   Mostly Cloudy
7:53 AM -23.8 °F -37.7 °F -29.2 °F 76% 30.15 in 10.0 mi WSW 4.6 mph - N/A   Scattered Clouds
8:14 AM -25.6 °F -37.1 °F -31.0 °F 76% 30.15 in 5.0 mi WSW 3.5 mph - N/A   Haze
8:33 AM -25.6 °F - -31.0 °F 76% 30.15 in 10.0 mi Calm Calm - N/A   Scattered Clouds
8:53 AM -25.6 °F -37.1 °F -32.8 °F 69% 30.15 in 10.0 mi SW 3.5 mph - N/A   Scattered Clouds
9:13 AM -25.6 °F -37.1 °F -31.0 °F 76% 30.16 in 10.0 mi SW 3.5 mph - N/A   Scattered Clouds
9:33 AM -23.8 °F -37.7 °F -29.2 °F 76% 30.16 in 10.0 mi SW 4.6 mph - N/A   Scattered Clouds
9:54 AM -20.2 °F -38.8 °F -27.4 °F 69% 30.16 in 10.0 mi West 8.1 mph - N/A   Clear
10:13 AM -18.4 °F -36.6 °F -25.6 °F 70% 30.16 in 10.0 mi WNW 8.1 mph - N/A   Clear
10:33 AM -18.4 °F -39.1 °F -25.6 °F 70% 30.16 in 10.0 mi WNW 10.4 mph - N/A   Clear
10:54 AM -16.6 °F -36.8 °F -23.8 °F 70% 30.17 in 10.0 mi WNW 10.4 mph - N/A   Clear
11:13 AM -16.6 °F -37.9 °F -23.8 °F 70% 30.16 in 10.0 mi WNW 11.5 mph - N/A   Clear
11:34 AM -14.8 °F -36.6 °F -23.8 °F 64% 30.15 in 7.0 mi WNW 12.7 mph - N/A   Scattered Clouds
11:54 AM -14.8 °F -39.8 °F -22.0 °F 70% 30.15 in 7.0 mi WNW 17.3 mph - N/A   Clear
12:13 PM -14.8 °F -40.5 °F -23.8 °F 64% 30.14 in 5.0 mi West 18.4 mph - N/A   Haze
12:34 PM -13.0 °F -37.5 °F -22.0 °F 64% 30.14 in 7.0 mi WNW 17.3 mph 20.7 mph N/A   Scattered Clouds
12:54 PM -13.0 °F -36.8 °F -20.2 °F 70% 30.13 in 5.0 mi West 16.1 mph - N/A   Haze
1:13 PM -11.2 °F -33.7 °F -20.2 °F 64% 30.13 in 5.0 mi WNW 15.0 mph - N/A   Haze
1:34 PM -11.2 °F -34.4 °F -20.2 °F 64% 30.13 in 5.0 mi WNW 16.1 mph - N/A   Haze
1:54 PM -11.2 °F -33.7 °F -20.2 °F 64% 30.13 in 7.0 mi WNW 15.0 mph 20.7 mph N/A   Scattered Clouds
2:13 PM -11.2 °F -33.7 °F -20.2 °F 64% 30.12 in 5.0 mi WNW 15.0 mph - N/A   Haze
2:34 PM -11.2 °F -35.2 °F -20.2 °F 64% 30.12 in 7.0 mi West 17.3 mph - N/A   Scattered Clouds
2:53 PM -11.2 °F -34.4 °F -20.2 °F 64% 30.13 in 7.0 mi WNW 16.1 mph - N/A   Clear
3:13 PM -11.2 °F -32.9 °F -20.2 °F 64% 30.13 in 7.0 mi WNW 13.8 mph - N/A   Clear
3:33 PM -11.2 °F -32.9 °F -20.2 °F 64% 30.14 in 10.0 mi WNW 13.8 mph - N/A   Clear
3:53 PM -11.2 °F -34.4 °F -20.2 °F 64% 30.14 in 10.0 mi WNW 16.1 mph - N/A   Scattered Clouds
4:14 PM -11.2 °F -35.8 °F -20.2 °F 64% 30.14 in 5.0 mi West 18.4 mph 21.9 mph N/A   Haze
4:53 PM -13.0 °F -35.2 °F -20.2 °F 70% 30.15 in 3.0 mi NW 13.8 mph - N/A   Haze
5:14 PM -14.8 °F -37.5 °F -20.2 °F 77% 30.16 in 7.0 mi WNW 13.8 mph - N/A   Scattered Clouds
5:33 PM -14.8 °F -36.6 °F -20.2 °F 77% 30.16 in 5.0 mi WNW 12.7 mph - N/A   Haze
5:53 PM -14.8 °F -34.6 °F -22.0 °F 70% 30.16 in 10.0 mi WNW 10.4 mph - N/A   Scattered Clouds
6:14 PM -16.6 °F -35.7 °F -23.8 °F 70% 30.16 in 10.0 mi WNW 9.2 mph - N/A   Clear
6:34 PM -16.6 °F -36.8 °F -23.8 °F 70% 30.16 in 10.0 mi WNW 10.4 mph - N/A   Clear
7:14 PM -16.6 °F -34.4 °F -23.8 °F 70% 30.16 in 10.0 mi WNW 8.1 mph - N/A   Clear
7:34 PM -16.6 °F -35.7 °F -23.8 °F 70% 30.17 in 10.0 mi West 9.2 mph - N/A   Clear
7:53 PM -16.6 °F -32.9 °F -23.8 °F 70% 30.17 in 10.0 mi West 6.9 mph - N/A   Clear
8:14 PM -18.4 °F -37.9 °F -23.8 °F 76% 30.18 in 10.0 mi West 9.2 mph - N/A   Clear
8:34 PM -18.4 °F -37.9 °F -25.6 °F 70% 30.17 in 10.0 mi West 9.2 mph - N/A   Clear
8:53 PM -18.4 °F -37.9 °F -25.6 °F 70% 30.17 in 10.0 mi WNW 9.2 mph - N/A   Clear
9:13 PM -20.2 °F -42.4 °F -25.6 °F 76% 30.17 in 10.0 mi WNW 11.5 mph - N/A   Clear
9:34 PM -20.2 °F -38.8 °F -25.6 °F 76% 30.18 in 10.0 mi WNW 8.1 mph - N/A   Clear
10:14 PM -20.2 °F -30.9 °F -25.6 °F 76% 30.18 in 10.0 mi West 3.5 mph - N/A   Clear
10:34 PM -20.2 °F - -25.6 °F 76% 30.18 in 10.0 mi Calm Calm - N/A   Clear
10:53 PM -22.0 °F - -27.4 °F 76% 30.18 in 10.0 mi Calm Calm - N/A   Clear
11:13 PM -20.2 °F -30.9 °F -27.4 °F 69% 30.19 in 10.0 mi West 3.5 mph - N/A   Clear
11:53 PM -20.2 °F -37.3 °F -27.4 °F 69% 30.19 in 10.0 mi WNW 6.9 mph - N/A   Clear